Burley, ID

1:47 AM MDT on October 16, 2019 (GMT -0600)
Burley Municipal

Weather History for KBYI - September, 2019

Change the Weather History Date:

Monday, September 23, 2019

  Actual Average Record
Temperature  
Mean Temperature 59 °F 56 °F  
Max Temperature 70 °F 71 °F 91 °F (1987)
Min Temperature 47 °F 41 °F 24 °F (1946)
Degree Days  
Heating Degree Days 6 9  
Month to date heating degree days 110 136  
Since 1 July heating degree days 131 193  
Cooling Degree Days 0 0  
Month to date cooling degree days 50 19  
Year to date cooling degree days 416 363  
Growing Degree Days 9 (Base 50)    
Moisture  
Dew Point 42 °F    
Average Humidity 59    
Maximum Humidity 80    
Minimum Humidity 37    
Precipitation  
Precipitation 0.00 in 0.02 in 0.67 in (2016)
Month to date precipitation 0.47 0.40  
Year to date precipitation 8.68 7.16  
Sea Level Pressure  
Sea Level Pressure 30.04 in    
Wind  
Wind Speed 8 mph (WSW)    
Max Wind Speed 16 mph    
Max Gust Speed 23 mph    
Visibility 10 miles    
Events      
T = Trace of Precipitation, MM = Missing Value Source: NWS Daily Summary

Daily Weather History Graph

Daily Weather History Graph

Search for Another Location

Airport or City:

Astronomy

Sep. 23, 2019 Rise Set
Actual Time 7:23 AM MDT 7:30 PM MDT
Civil Twilight 6:55 AM MDT 7:58 PM MDT
Nautical Twilight 6:22 AM MDT 8:31 PM MDT
Astronomical Twilight 5:48 AM MDT 9:05 PM MDT
Moon 1:02 AM MDT (9/23) 4:35 PM MDT (9/23)
Length of Visible Light 13h 03m
Length of Day
12h 07m
Waning Crescent, 32% of the Moon is Illuminated
Sep 23
Waning Crescent
Sep 28
New
Oct 5
First Quarter
Oct 13
Full
Oct 21
Last Quarter

Hourly Weather History & Observations

Time (MDT) Temp. Dew Point Humidity Pressure Visibility Wind Dir Wind Speed Gust Speed Precip Events Conditions
12:53 AM 57.9 °F 32.0 °F 37% 29.88 in 10.0 mi South 4.6 mph - N/A   Clear
1:53 AM 55.0 °F 37.0 °F 51% 29.89 in 10.0 mi Calm Calm - N/A   Mostly Cloudy
2:53 AM 53.1 °F 35.1 °F 50% 29.90 in 10.0 mi Calm Calm - N/A   Clear
3:53 AM 53.1 °F 36.0 °F 52% 29.92 in 10.0 mi West 5.8 mph - N/A   Clear
4:53 AM 48.9 °F 39.0 °F 69% 29.95 in 10.0 mi SSW 8.1 mph - N/A   Clear
5:53 AM 51.1 °F 41.0 °F 68% 29.97 in 10.0 mi SSW 6.9 mph - N/A   Clear
6:53 AM 48.9 °F 42.1 °F 77% 30.00 in 10.0 mi SSW 6.9 mph - N/A   Clear
7:53 AM 48.0 °F 41.0 °F 77% 30.03 in 10.0 mi SW 5.8 mph - N/A   Clear
8:53 AM 55.9 °F 44.1 °F 64% 30.04 in 10.0 mi West 6.9 mph - N/A   Clear
9:53 AM 57.9 °F 45.0 °F 62% 30.06 in 10.0 mi West 12.7 mph - N/A   Clear
10:53 AM 61.0 °F 46.0 °F 58% 30.08 in 10.0 mi West 9.2 mph - N/A   Clear
11:53 AM 62.1 °F 46.0 °F 56% 30.09 in 10.0 mi WSW 10.4 mph - N/A   Clear
12:53 PM 64.9 °F 46.0 °F 50% 30.08 in 10.0 mi WSW 11.5 mph - N/A   Clear
1:53 PM 66.9 °F 46.0 °F 47% 30.08 in 10.0 mi West 9.2 mph 18.4 mph N/A   Clear
2:53 PM 69.1 °F 43.0 °F 39% 30.07 in 10.0 mi West 9.2 mph - N/A   Clear
3:53 PM 70.0 °F 43.0 °F 38% 30.06 in 10.0 mi West 9.2 mph - N/A   Clear
4:53 PM 70.0 °F 42.1 °F 36% 30.06 in 10.0 mi West 10.4 mph 17.3 mph N/A   Clear
5:53 PM 69.1 °F 43.0 °F 39% 30.06 in 10.0 mi West 9.2 mph - N/A   Clear
6:53 PM 66.0 °F 43.0 °F 43% 30.08 in 10.0 mi West 9.2 mph - N/A   Clear
7:53 PM 62.1 °F 43.0 °F 50% 30.11 in 10.0 mi West 9.2 mph - N/A   Clear
8:53 PM 55.9 °F 43.0 °F 62% 30.12 in 10.0 mi WSW 5.8 mph - N/A   Clear
9:53 PM 55.0 °F 44.1 °F 67% 30.13 in 10.0 mi WSW 10.4 mph - N/A   Clear
10:53 PM 57.0 °F 42.1 °F 57% 30.13 in 10.0 mi WSW 11.5 mph - N/A   Clear
11:53 PM 55.0 °F 42.1 °F 62% 30.12 in 10.0 mi SSW 12.7 mph - N/A   Clear